Location: Unspecified
(43.3830°N, 0.0000°E)
Time: 18:06:39
(UTC+00:00)

Explorer 7 - Pass Details

Date: 02 July 2019
Orbit: 485 x 680 km, 50.3° (Epoch: 20 August)

Event Time Altitude Azimuth Distance (km) Brightness Sun altitude
Rises 04:28:19 0° 218° (SW) 2,583 9.6 -0.1°
Reaches altitude 10° 04:30:32 10° 210° (SSW) 1,724 8.8 0.2°
Maximum altitude 04:34:12 40° 141° (SE) 793 7.8 0.8°
Drops below altitude 10° 04:38:05 10° 71° (ENE) 1,831 11.5 1.4°
Sets 04:40:30 0° 64° (ENE) 2,766 13.6 1.8°
